GW0254 Weather Reports


Display with metric or nautical units.
time (UTC)temp
F
wind
direction
speed
MPH
gust
MPH
rain 1hr
in
rain 24hr
in
rain mn
in
humidity
%
barometer
mb
20260901084544 54 28 1.0 3.0 0.00 0.00 0.00 44 1018.8
20260901083045 54 28 1.0 4.0 0.00 0.00 0.00 43 1018.7
20260901081552 54 28 1.0 4.0 0.00 0.00 0.00 43 1018.8
20260901080100 54 28 1.0 3.0 0.00 0.00 0.00 44 1018.8
20260901074547 54 27 1.0 4.0 0.00 0.00 0.00 43 1018.9
20260901073044 54 28 2.0 4.0 0.00 0.00 0.00 43 1019.0
20260901071551 55 0 1.0 3.0 0.00 0.00 0.00 44 1018.9
20260901070052 55 28 1.0 3.0 0.00 0.00 0.00 44 1019.1
20260901064549 55 28 2.0 3.0 0.00 0.00 0.00 45 1019.1
20260901063058 55 28 1.0 4.0 0.00 0.00 0.00 45 1019.2
20260901061551 55 9 1.0 4.0 0.00 0.00 0.00 45 1019.1
20260901060054 55 9 2.0 4.0 0.00 0.00 0.00 46 1019.1
20260901054546 56 9 2.0 3.0 0.00 0.00 0.00 47 1019.3
20260901053052 56 9 2.0 5.0 0.00 0.00 0.00 48 1019.4
20260901051551 56 32 2.0 4.0 0.00 0.00 0.00 48 1019.4
20260901050044 56 36 1.0 4.0 0.00 0.00 0.00 49 1019.6
20260901044551 56 36 1.0 4.0 0.00 0.00 0.00 49 1019.6
20260901043046 56 36 0.0 3.0 0.00 0.00 0.00 50 1019.4
20260901041549 56 36 1.0 3.0 0.00 0.00 0.00 50 1019.5
20260901040057 57 36 1.0 6.0 0.00 0.00 0.00 49 1019.3
20260901034551 58 165 1.0 4.0 0.00 0.00 0.00 48 1019.1
20260901033046 58 165 1.0 5.0 0.00 0.00 0.00 47 1019.0
20260901031545 58 0 1.0 4.0 0.00 0.00 0.00 47 1018.9
20260901030055 59 165 0.0 6.0 0.00 0.00 0.00 46 1018.9
20260901024550 60 0 0.0 4.0 0.00 0.00 0.00 45 1018.9
20260901023046 61 171 0.0 2.0 0.00 0.00 0.00 44 1019.1
20260901021545 62 171 0.0 2.0 0.00 0.00 0.00 43 1019.1
20260901020046 63 171 0.0 3.0 0.00 0.00 0.00 43 1019.0
20260901014556 64 171 0.0 4.0 0.00 0.00 0.00 42 1019.1
20260901013048 64 169 1.0 6.0 0.00 0.00 0.00 41 1019.1
20260901011545 65 190 2.0 10.0 0.00 0.00 0.00 41 1019.1
20260901010059 66 142 3.0 8.0 0.00 0.00 0.00 40 1019.1
20260901004552 66 219 3.0 10.0 0.00 0.00 0.00 40 1018.9
20260901003046 67 187 1.0 11.0 0.00 0.00 0.00 39 1019.0
20260901001545 68 187 2.0 10.0 0.00 0.00 0.00 38 1019.0
20260901000052 69 178 4.0 12.0 0.00 0.00 0.00 35 1019.0
20260831234552 69 166 2.0 11.0 0.00 0.00 0.00 35 1019.0
20260831233057 69 166 3.0 11.0 0.00 0.00 0.00 34 1019.1
20260831231550 70 250 3.0 13.0 0.00 0.00 0.00 34 1019.1
20260831230046 70 182 4.0 12.0 0.00 0.00 0.00 34 1019.1
20260831224547 72 199 3.0 8.0 0.00 0.00 0.00 30 1019.1
20260831223053 71 175 4.0 10.0 0.00 0.00 0.00 30 1019.3
20260831221551 72 136 4.0 8.0 0.00 0.00 0.00 28 1019.5
20260831220049 72 183 4.0 10.0 0.00 0.00 0.00 28 1019.7
20260831214605 72 146 3.0 11.0 0.00 0.00 0.00 29 1019.9
20260831213045 70 179 3.0 11.0 0.00 0.00 0.00 35 1019.9
20260831211550 70 145 2.0 8.0 0.00 0.00 0.00 35 1020.1
20260831210046 71 174 3.0 7.0 0.00 0.00 0.00 35 1020.1
20260831204548 69 196 2.0 9.0 0.00 0.00 0.00 36 1020.1
20260831203049 69 182 3.0 9.0 0.00 0.00 0.00 33 1020.2
20260831201602 69 168 3.0 9.0 0.00 0.00 0.00 32 1020.3
20260831200046 69 147 3.0 10.0 0.00 0.00 0.00 32 1020.5
20260831194546 70 143 5.0 9.0 0.00 0.00 0.00 30 1020.6
20260831193113 69 175 2.0 10.0 0.00 0.00 0.00 32 1020.7
20260831191551 69 198 3.0 10.0 0.00 0.00 0.00 30 1020.8
20260831190051 70 187 2.0 8.0 0.00 0.00 0.00 30 1020.9
20260831184546 69 163 1.0 7.0 0.00 0.00 0.00 29 1020.9
20260831183050 69 153 2.0 7.0 0.00 0.00 0.00 29 1020.9
20260831181608 69 199 3.0 8.0 0.00 0.00 0.00 37 1020.9
20260831180047 68 152 3.0 7.0 0.00 0.00 0.00 44 1020.9
20260831174555 66 190 3.0 7.0 0.00 0.00 0.00 45 1020.9
20260831173048 66 175 2.0 7.0 0.00 0.00 0.00 46 1020.9
20260831171547 65 165 2.0 5.0 0.00 0.00 0.00 55 1020.9
20260831170056 65 189 3.0 7.0 0.00 0.00 0.00 57 1020.8
20260831164602 65 190 2.0 6.0 0.00 0.00 0.00 61 1020.7
20260831163051 63 196 3.0 7.0 0.00 0.00 0.00 61 1020.7
20260831161603 63 158 1.0 5.0 0.00 0.00 0.00 63 1020.8
20260831154618 62 170 2.0 6.0 0.00 0.00 0.00 62 1020.9
20260831153056 62 158 2.0 5.0 0.00 0.00 0.00 61 1020.9
20260831151548 63 175 1.0 4.0 0.00 0.00 0.00 60 1020.9
20260831150053 63 176 0.0 2.0 0.00 0.00 0.00 62 1020.9
20260831144601 60 0 0.0 1.0 0.00 0.00 0.00 62 1020.7
20260831143049 57 175 0.0 1.0 0.00 0.00 0.00 63 1020.5
20260831141551 54 175 0.0 2.0 0.00 0.00 0.00 57 1020.5
20260831140046 54 176 1.0 2.0 0.00 0.00 0.00 56 1020.5
20260831134558 54 176 1.0 2.0 0.00 0.00 0.00 59 1020.3
20260831133046 54 176 2.0 3.0 0.00 0.00 0.00 58 1020.4
20260831131601 54 176 1.0 3.0 0.00 0.00 0.00 60 1020.5
20260831130056 54 175 1.0 2.0 0.00 0.00 0.00 56 1020.5
20260831124545 54 176 1.0 2.0 0.00 0.00 0.00 53 1020.4
20260831123046 54 175 1.0 2.0 0.00 0.00 0.00 50 1020.4
20260831121556 54 176 1.0 2.0 0.00 0.00 0.00 58 1020.4
20260831120051 54 176 1.0 2.0 0.00 0.00 0.00 58 1020.4
20260831114551 54 176 1.0 2.0 0.00 0.00 0.00 57 1020.6
20260831113050 54 176 1.0 2.0 0.00 0.00 0.00 59 1020.7
20260831111550 55 176 1.0 2.0 0.00 0.00 0.00 58 1020.8
20260831110052 55 176 1.0 3.0 0.00 0.00 0.00 59 1020.9
20260831104552 55 176 1.0 2.0 0.00 0.00 0.00 57 1020.9
20260831103045 55 175 1.0 3.0 0.00 0.00 0.00 55 1021.0
20260831101547 55 176 1.0 2.0 0.00 0.00 0.00 55 1020.9
20260831100106 55 176 1.0 3.0 0.00 0.00 0.00 53 1020.9
20260831094548 55 176 1.0 2.0 0.00 0.00 0.00 49 1020.9
20260831093107 55 175 1.0 3.0 0.00 0.00 0.00 48 1021.0
20260831091550 56 176 1.0 3.0 0.00 0.00 0.00 47 1021.0
20260831090059 56 176 2.0 3.0 0.00 0.00 0.00 49 1021.2